Location: Arroyo de Valdeoliva
(40.1604°N, 4.9878°W)
Time: 05:28:25
(UTC+00:00)

Cosmos 1825 Rocket - Pass Details

Date: 18 March 2026
Orbit: 596 x 623 km, 82.5° (Epoch: 15 April)

Event Time Altitude Azimuth Distance (km) Brightness Sun altitude
Rises 05:04:10 0° 2° (N) 2,895 7.2 -16.5°
Reaches altitude 10° 05:06:36 10° 13° (NNE) 1,980 6.5 -16.1°
Maximum altitude 05:10:32 32° 76° (ENE) 1,064 5.5 -15.3°
Drops below altitude 10° 05:14:24 10° 140° (SE) 1,951 6.5 -14.6°
Sets 05:16:47 0° 150° (SSE) 2,845 7.2 -14.2°
